GW4294 Weather Reports


Display with metric or nautical units.
time (UTC)temp
F
wind
direction
speed
MPH
gust
MPH
rain 1hr
in
rain 24hr
in
rain mn
in
humidity
%
barometer
mb
20260506061552 43 0 0.0 1.0 0.00 0.00 0.00 76 1006.5
20260506050113 44 0 0.0 0.0 0.00 0.01 0.00 75 1007.2
20260506044554 44 0 0.0 1.0 0.00 0.01 0.00 76 1007.2
20260506043054 43 0 0.0 1.0 0.00 0.01 0.00 76 1007.0
20260506041601 43 0 0.0 0.0 0.00 0.01 0.00 76 1007.1
20260506040057 43 0 0.0 1.0 0.00 0.01 0.00 75 1007.1
20260506034556 43 0 0.0 0.0 0.00 0.01 0.01 75 1007.1
20260506033053 44 0 0.0 0.0 0.00 0.01 0.01 74 1007.1
20260506031552 44 0 0.0 2.0 0.00 0.01 0.01 74 1007.1
20260506030051 44 0 0.0 1.0 0.00 0.01 0.01 74 1006.9
20260506024606 44 0 0.0 1.0 0.00 0.01 0.01 73 1006.9
20260506023107 44 0 0.0 2.0 0.00 0.01 0.01 72 1006.9
20260506021552 45 0 0.0 1.0 0.00 0.01 0.01 72 1007.0
20260506020056 45 0 0.0 0.0 0.00 0.01 0.01 72 1007.1
20260506014552 45 0 0.0 1.0 0.00 0.01 0.01 70 1007.0
20260506013059 46 0 0.0 0.0 0.00 0.01 0.01 69 1006.9
20260506011604 46 0 0.0 0.0 0.00 0.01 0.01 69 1006.6
20260506010055 46 0 0.0 1.0 0.00 0.01 0.01 67 1006.5
20260506004600 47 0 0.0 2.0 0.00 0.01 0.01 66 1006.3
20260506003053 47 0 0.0 1.0 0.00 0.01 0.01 65 1006.3
20260506001558 48 0 0.0 1.0 0.00 0.01 0.01 62 1006.2
20260506000105 49 0 0.0 2.0 0.00 0.01 0.01 61 1006.0
20260505234558 51 0 0.0 3.0 0.00 0.01 0.01 60 1005.9
20260505233056 51 0 0.0 1.0 0.00 0.01 0.01 57 1005.9
20260505231554 51 0 0.0 1.0 0.00 0.01 0.01 56 1005.9
20260505230119 52 136 0.0 2.0 0.00 0.01 0.01 55 1005.9
20260505224552 52 99 1.0 2.0 0.00 0.01 0.01 55 1006.0
20260505223058 52 146 1.0 3.0 0.00 0.01 0.01 54 1006.0
20260505221559 52 131 1.0 3.0 0.00 0.01 0.01 54 1006.1
20260505214559 53 0 0.0 4.0 0.00 0.01 0.01 55 1005.8
20260505213052 54 256 1.0 6.0 0.00 0.01 0.01 51 1006.0
20260505211605 54 155 1.0 4.0 0.00 0.01 0.01 53 1006.0
20260505210106 53 115 1.0 4.0 0.00 0.01 0.01 54 1005.9
20260505204603 53 253 0.0 5.0 0.00 0.01 0.01 54 1005.8
20260505203102 53 300 0.0 4.0 0.00 0.01 0.01 52 1005.8
20260505201555 53 135 1.0 3.0 0.00 0.01 0.01 50 1005.8
20260505200107 53 264 2.0 6.0 0.00 0.01 0.01 50 1006.1
20260505194551 53 266 1.0 9.0 0.00 0.01 0.01 52 1005.6
20260505193102 51 304 1.0 5.0 0.00 0.01 0.01 53 1005.7
20260505191607 50 294 2.0 5.0 0.00 0.01 0.01 51 1005.7
20260505190054 50 309 1.0 5.0 0.00 0.01 0.01 53 1005.8
20260505184557 49 310 2.0 6.0 0.00 0.01 0.01 53 1005.7
20260505183053 49 281 2.0 6.0 0.00 0.01 0.01 52 1005.6
20260505181559 49 293 1.0 6.0 0.00 0.01 0.01 56 1005.6
20260505180058 49 313 3.0 7.0 0.00 0.01 0.01 51 1005.4
20260505174551 49 292 2.0 5.0 0.00 0.01 0.01 62 1005.1
20260505173055 49 321 0.0 5.0 0.00 0.01 0.01 62 1005.0
20260505171556 48 0 1.0 5.0 0.00 0.01 0.01 63 1005.2
20260505170055 49 0 0.0 5.0 0.00 0.01 0.01 64 1004.9
20260505164554 48 346 2.0 7.0 0.00 0.01 0.01 61 1005.0
20260505163054 49 293 1.0 4.0 0.00 0.01 0.01 59 1004.9
20260505161551 49 297 0.0 4.0 0.00 0.01 0.01 59 1004.9
20260505153052 49 303 1.0 5.0 0.00 0.01 0.01 56 1004.6
20260505151556 50 311 1.0 5.0 0.00 0.01 0.01 59 1004.6
20260505150106 50 13 1.0 5.0 0.00 0.01 0.01 60 1004.1
20260505130109 46 302 2.0 6.0 0.00 0.01 0.01 69 1002.3
20260505124558 46 301 1.0 5.0 0.00 0.01 0.01 72 1002.5
20260505123057 45 285 1.0 6.0 0.00 0.01 0.01 71 1002.1
20260505121559 45 296 2.0 4.0 0.00 0.01 0.01 72 1001.7
20260505120104 45 0 1.0 4.0 0.00 0.01 0.01 72 1001.5
20260505114552 45 0 0.0 1.0 0.00 0.01 0.01 76 1001.1
20260505113100 44 277 1.0 4.0 0.00 0.01 0.01 77 1001.1
20260505111552 44 284 1.0 6.0 0.00 0.01 0.01 77 1000.5
20260505101558 45 268 1.0 6.0 0.00 0.01 0.01 84 999.6
20260505100053 45 0 1.0 4.0 0.00 0.01 0.01 87 999.2
20260505094607 46 284 2.0 7.0 0.00 0.01 0.01 85 998.7
20260505093057 48 287 4.0 10.0 0.00 0.01 0.01 83 998.1
20260505091559 52 300 1.0 5.0 0.00 0.01 0.01 84 997.6
20260505090058 53 290 0.0 2.0 0.00 0.01 0.01 84 997.4
20260505084558 53 0 0.0 3.0 0.00 0.01 0.01 84 997.1
20260505083100 54 0 0.0 2.0 0.00 0.01 0.01 84 996.5
20260505081559 55 0 0.0 3.0 0.00 0.01 0.01 83 996.8
20260505080053 55 241 1.0 5.0 0.00 0.01 0.01 82 997.0
20260505074551 56 310 1.0 3.0 0.00 0.01 0.01 82 997.2
20260505073103 56 279 0.0 3.0 0.00 0.01 0.01 81 996.9
20260505071553 57 221 1.0 3.0 0.00 0.01 0.01 80 997.1
20260505070054 57 252 0.0 2.0 0.00 0.01 0.01 78 997.0